Location: Unspecified
(50.1700°N, 6.8600°E)
Time: 00:38:50
(UTC+00:00)

Cosmos 1484 Rocket - Pass Details

Date: 24 January 2019
Orbit: 507 x 560 km, 97.4° (Epoch: 17 February)

Event Time Altitude Azimuth Distance (km) Brightness Sun altitude
Rises 04:56:32 0° 16° (NNE) 2,760 6.5 -22.3°
Reaches altitude 10° 04:58:43 10° 20° (NNE) 1,855 5.7 -21.9°
Maximum altitude 05:02:41 60° 100° (E) 642 3.4 -21.3°
Drops below altitude 10° 05:06:35 10° 181° (S) 1,817 5.5 -20.7°
Sets 05:08:42 0° 185° (S) 2,697 6.4 -20.3°
